Location: Laan Hart van Zuid
(52.2563°N, 6.7904°E)
Time: 05:19:20
(UTC+01:00)

ARIANE 6 FM1 Upper Stage - Pass Details

Date: 24 January 2026
Orbit: 522 x 608 km, 62.0° (Epoch: 18 February)

Event Time Altitude Azimuth Distance (km) Brightness Sun altitude
Rises 18:33:31 0° 195° (SSW) 2,702 6.6 -13.3°
Reaches altitude 10° 18:35:57 10° 183° (S) 1,800 5.5 -13.6°
Maximum altitude 18:39:23 27° 125° (SE) 1,046 3.7 -14.1°
Enters shadow 18:40:31 24° 97° (E) 1,148 3.7 -14.3°
